www.pogodaiklimat.ru

Погода и климат >> Архив погоды >> Норвегия >> Сетса


ПОГОДА в Сетсе

  • Прогноз погоды в Сетсе
  • Монитор погоды в Сетсе

АРХИВ ПОГОДЫ в Сетсе

Время (UTC), дата Ветер
(напр.,м/с)
 
Видим.   Явления Облачность Т
(С)
Тd
(С)
f
(%)
Тe
(С)
Тes
(С)
Комфортность P
(гПа)
Po
(гПа)
Тmin
(С)
Tmax
(С)
R
(мм)
R24
(мм)
S
(см)
22 8.06 н/о н/о +8.9 +7.4 90 1013.1 1012.2
23 8.06 н/о н/о +10.3 +9.2 93 1012.6 1011.7
00 9.06 н/о н/о +9.7 +8.3 91 1012.1 1011.2
01 9.06 н/о н/о +9.5 +8.6 94 1011.5 1010.6
02 9.06 н/о н/о +10.2 +9.4 95 1010.7 1009.8
03 9.06 н/о н/о +10.0 +9.1 94 1010.1 1009.2
04 9.06 н/о н/о +10.3 +9.1 92 1009.3 1008.4
05 9.06 н/о н/о +12.0 +10.3 89 1008.5 1007.6
06 9.06 н/о н/о +12.7 +9.3 80 1007.7 1006.8 +8.9 +13.1
07 9.06 н/о н/о +11.6 +8.8 83 1006.8 1005.9
08 9.06 н/о н/о +13.5 +10.1 80 1006.4 1005.5
09 9.06 н/о н/о +15.5 +10.5 72 1005.6 1004.7
10 9.06 н/о н/о +16.8 +11.1 69 1004.7 1003.8
11 9.06 н/о н/о +20.3 +13.0 63 1003.6 1002.7
12 9.06 н/о н/о +23.8 +12.1 48 1002.8 1001.9
13 9.06 н/о н/о +21.8 +12.1 54 1003.1 1002.2
14 9.06 н/о н/о +14.9 +12.8 87 1004.6 1003.7 5
15 9.06 н/о н/о +12.6 +11.5 93 1005.7 1004.8 6
16 9.06 н/о н/о +11.7 +10.6 93 1005.9 1005.0 5
17 9.06 н/о н/о +11.8 +10.9 94 1006.3 1005.4 7
18 9.06 н/о н/о +11.2 +10.3 94 1006.2 1005.3 +11.2 +24.2 3
19 9.06 н/о н/о +11.3 +10.5 95 1006.0 1005.1 0.5
20 9.06 н/о н/о +11.2 +10.4 95 1005.8 1004.9
21 9.06 н/о н/о +10.9 +10.3 96 1005.4 1004.5
22 9.06 н/о н/о +10.5 +9.7 95 1005.4 1004.5
23 9.06 н/о н/о +10.3 +9.7 96 1005.4 1004.5
00 10.06 н/о н/о +10.3 +9.7 96 1005.2 1004.3 0.1
01 10.06 н/о н/о +9.8 +9.2 96 1005.0 1004.1 0.1
02 10.06 н/о н/о +9.8 +9.2 96 1004.8 1003.9
03 10.06 н/о н/о +8.9 +8.1 95 1004.9 1004.0 0.4
04 10.06 н/о н/о +9.3 +8.4 94 1005.5 1004.6 0.6
05 10.06 н/о н/о +8.4 +7.3 93 1006.1 1005.2 1
06 10.06 н/о н/о +8.3 +6.9 91 1006.7 1005.8 +8.3 +11.5 7
07 10.06 н/о н/о +7.9 +6.5 91 1008.0 1007.1 2
08 10.06 н/о н/о +8.0 +5.6 85 1009.1 1008.2
09 10.06 н/о н/о +7.5 +5.5 87 1010.3 1009.4
10 10.06 н/о н/о +7.4 +5.1 85 1011.8 1010.9
11 10.06 н/о н/о +7.6 +4.7 82 1012.8 1011.9
12 10.06 н/о н/о +7.9 +4.7 80 1013.8 1012.9
13 10.06 н/о н/о +7.6 +4.6 81 1014.7 1013.8
14 10.06 н/о н/о +7.7 +4.5 80 1015.9 1015.0
15 10.06 н/о н/о +7.5 +4.6 82 1016.7 1015.8
16 10.06 н/о н/о +8.2 +3.9 74 1017.5 1016.6
17 10.06 н/о н/о +8.1 +4.3 77 1018.2 1017.3
18 10.06 н/о н/о +7.9 +4.9 81 1018.9 1018.0 +7.2 +8.3
19 10.06 н/о н/о +7.9 +5.0 82 1019.8 1018.9
20 10.06 н/о н/о +7.2 +5.0 86 1020.6 1019.7
21 10.06 н/о н/о +6.8 +5.0 88 1021.5 1020.6
22 10.06 н/о н/о +6.5 +5.1 91 1022.2 1021.3
23 10.06 н/о н/о +6.1 +4.9 92 1023.0 1022.1
00 11.06 н/о н/о +6.0 +5.0 93 1023.6 1022.7
01 11.06 н/о н/о +6.0 +5.0 93 1024.1 1023.2
02 11.06 н/о н/о +6.0 +5.0 93 1024.9 1024.0 0.2
03 11.06 н/о н/о +6.1 +5.2 94 1025.3 1024.4 0.6
04 11.06 н/о н/о +6.2 +5.2 93 1025.7 1024.8 0.3
05 11.06 н/о н/о +6.5 +5.3 92 1026.5 1025.6
06 11.06 н/о н/о +7.4 +5.7 89 1027.1 1026.2 +5.9 +7.9 1
07 11.06 н/о н/о +8.4 +4.6 77 1027.6 1026.7
08 11.06 н/о н/о +9.7 +3.7 66 1028.3 1027.4
09 11.06 н/о н/о +10.1 +2.7 60 1028.9 1028.0
10 11.06 н/о н/о +10.2 +3.0 61 1029.3 1028.4
11 11.06 н/о н/о +10.9 +3.7 61 1029.7 1028.8
12 11.06 н/о н/о +12.1 +4.6 60 1029.8 1028.9
13 11.06 н/о н/о +12.6 +2.5 50 1029.9 1029.0
14 11.06 н/о н/о +13.2 +2.2 47 1029.8 1028.9
15 11.06 н/о н/о +12.3 +2.5 51 1029.9 1029.0
16 11.06 н/о н/о +12.8 +3.2 52 1030.1 1029.2
17 11.06 н/о н/о +12.5 +3.2 53 1030.3 1029.4
18 11.06 н/о н/о +12.0 +3.5 56 1030.4 1029.5 +6.9 +13.3
19 11.06 н/о н/о +11.3 +2.9 56 1030.7 1029.8
20 11.06 н/о н/о +10.5 +2.1 56 1030.7 1029.8
21 11.06 н/о н/о +7.3 +3.0 74 1030.8 1029.9
22 11.06 н/о н/о +5.9 +3.1 82 1030.8 1029.9
23 11.06 н/о н/о +4.7 +2.6 86 1031.1 1030.1
00 12.06 н/о н/о +4.0 +2.2 88 1031.1 1030.1
01 12.06 н/о н/о +3.2 +1.7 90 1030.9 1029.9
02 12.06 н/о н/о +3.3 +2.0 91 1030.5 1029.5
03 12.06 н/о н/о +4.2 +3.2 93 1030.1 1029.1
04 12.06 н/о н/о +5.3 +3.5 88 1029.8 1028.8
05 12.06 н/о н/о +6.4 +3.7 83 1029.3 1028.4
06 12.06 н/о н/о +8.9 +3.7 70 1029.0 1028.1 +2.5 +12.2
07 12.06 н/о н/о +9.9 +4.3 68 1028.3 1027.4
08 12.06 н/о н/о +10.3 +5.3 71 1027.8 1026.9
09 12.06 н/о н/о +12.1 +5.1 62 1027.4 1026.5
10 12.06 н/о н/о +13.0 +4.2 55 1027.0 1026.1
11 12.06 н/о н/о +14.6 +4.3 50 1026.2 1025.3
12 12.06 н/о н/о +14.2 +4.5 52 1025.9 1025.0
13 12.06 н/о н/о +14.7 +4.4 50 1025.4 1024.5
14 12.06 н/о н/о +15.7 +5.0 49 1024.7 1023.8
15 12.06 н/о н/о +15.5 +5.2 50 1024.2 1023.3
16 12.06 н/о н/о +15.7 +5.6 51 1023.4 1022.5
17 12.06 н/о н/о +16.0 +4.7 47 1023.0 1022.1
18 12.06 н/о н/о +15.9 +5.2 49 1022.8 1021.9 +8.9 +16.3
19 12.06 н/о н/о +15.7 +5.9 52 1022.4 1021.5
20 12.06 н/о н/о +11.6 +6.5 71 1022.4 1021.5
21 12.06 н/о н/о +8.7 +6.2 84 1022.3 1021.4
22 12.06 н/о н/о +7.2 +5.4 88 1022.5 1021.6
23 12.06 н/о н/о +7.1 +5.7 91 1022.2 1021.3
00 13.06 н/о н/о +12.1 +4.1 58 1022.2 1021.3
01 13.06 н/о н/о +13.6 +1.9 45 1022.2 1021.3
02 13.06 н/о н/о +13.5 +1.5 44 1022.2 1021.3
03 13.06 н/о н/о +13.3 +1.3 44 1022.0 1021.1
04 13.06 н/о н/о +13.5 +0.2 40 1021.7 1020.8
05 13.06 н/о н/о +13.9 -0.5 37 1021.5 1020.6
06 13.06 н/о н/о +13.6 -1.9 34 1021.4 1020.5 +6.7 +16.0
07 13.06 н/о н/о +13.2 -0.1 40 1021.8 1020.9
08 13.06 н/о н/о +13.7 +1.7 44 1021.7 1020.8
09 13.06 н/о н/о +14.5 +1.4 41 1022.1 1021.2
10 13.06 н/о н/о +15.8 +2.6 41 1021.6 1020.7
11 13.06 н/о н/о +15.9 +2.7 41 1021.5 1020.6
12 13.06 н/о н/о +18.0 +4.2 40 1021.2 1020.3
13 13.06 н/о н/о +18.3 +3.4 37 1020.7 1019.8
14 13.06 н/о н/о +18.5 +2.4 34 1020.4 1019.5
15 13.06 н/о н/о +18.7 +3.0 35 1020.2 1019.3
16 13.06 н/о н/о +18.7 +3.4 36 1019.7 1018.8
17 13.06 н/о н/о +18.3 +2.6 35 1019.4 1018.5
18 13.06 н/о н/о +18.7 +3.4 36 1019.1 1018.2 +13.0 +19.1
19 13.06 н/о н/о +17.8 +1.8 34 1019.0 1018.1
20 13.06 н/о н/о +17.0 +2.6 38 1019.0 1018.1
21 13.06 н/о н/о +15.7 +2.2 40 1019.2 1018.3
22 13.06 н/о н/о +15.7 +2.2 40 1019.3 1018.4
23 13.06 н/о н/о +15.7 +1.5 38 1019.3 1018.4
00 14.06 н/о н/о +15.5 +1.6 39 1019.5 1018.6
01 14.06 н/о н/о +14.0 +3.2 48 1019.8 1018.9
02 14.06 н/о н/о +12.1 +3.1 54 1019.9 1019.0
03 14.06 н/о н/о +12.7 +3.4 53 1019.8 1018.9
04 14.06 н/о н/о +13.6 +4.0 52 1019.6 1018.7
05 14.06 н/о н/о +14.5 +3.9 49 1019.3 1018.4
06 14.06 н/о н/о +14.3 +5.9 57 1019.3 1018.4 +11.5 +18.7
07 14.06 н/о н/о +15.7 +5.3 50 1019.1 1018.2
08 14.06 н/о н/о +16.2 +5.2 48 1019.2 1018.3
09 14.06 н/о н/о +16.7 +5.7 48 1019.3 1018.4
10 14.06 н/о н/о +16.0 +7.8 58 1018.8 1017.9
11 14.06 н/о н/о +17.7 +7.2 50 1018.5 1017.6
12 14.06 н/о н/о +18.5 +7.0 47 1018.2 1017.3
13 14.06 н/о н/о +18.9 +7.4 47 1017.6 1016.7
14 14.06 н/о н/о +18.6 +7.7 49 1016.8 1015.9
15 14.06 н/о н/о +18.4 +9.2 55 1016.5 1015.6
16 14.06 н/о н/о +20.3 +8.0 45 1016.1 1015.2
17 14.06 н/о н/о +18.9 +8.0 49 1016.1 1015.2
18 14.06 н/о н/о +20.0 +7.4 44 1016.0 1015.1 +14.3 +20.7
19 14.06 н/о н/о +19.4 +7.8 47 1016.0 1015.1
20 14.06 н/о н/о +16.2 +8.7 61 1016.4 1015.5
21 14.06 н/о н/о +11.9 +7.8 76 1016.5 1015.6
22 14.06 н/о н/о +11.2 +6.6 73 1016.6 1015.7
23 14.06 н/о н/о +9.7 +6.4 80 1016.8 1015.9
00 15.06 н/о н/о +7.9 +5.9 87 1017.0 1016.1
01 15.06 н/о н/о +7.9 +6.2 89 1017.2 1016.3
02 15.06 н/о н/о +7.6 +5.9 89 1017.2 1016.3
03 15.06 н/о н/о +8.7 +7.0 89 1017.2 1016.3
04 15.06 н/о н/о +10.4 +7.6 83 1017.3 1016.4
05 15.06 н/о н/о +11.7 +7.8 77 1017.3 1016.4
06 15.06 н/о н/о +13.1 +8.0 71 1017.3 1016.4 +7.3 +20.1
07 15.06 н/о н/о +12.8 +8.1 73 1017.4 1016.5
08 15.06 н/о н/о +13.7 +8.6 71 1017.5 1016.6
09 15.06 н/о н/о +16.4 +8.9 61 1017.5 1016.6
10 15.06 н/о н/о +17.0 +7.6 54 1017.7 1016.8
11 15.06 н/о н/о +18.3 +6.2 45 1017.7 1016.8
12 15.06 н/о н/о +16.9 +6.4 50 1018.1 1017.2
13 15.06 н/о н/о +18.6 +4.0 38 1018.2 1017.3
14 15.06 н/о н/о +18.2 +3.3 37 1018.4 1017.5
15 15.06 н/о н/о +18.2 +4.4 40 1018.4 1017.5
16 15.06 н/о н/о +17.7 +5.3 44 1018.1 1017.2
17 15.06 н/о н/о +17.3 +5.9 47 1017.9 1017.0
18 15.06 н/о н/о +16.5 +4.9 46 1017.6 1016.7 +12.3 +18.8
19 15.06 н/о н/о +16.1 +4.2 45 1017.4 1016.5
20 15.06 н/о н/о +13.3 +6.9 65 1017.3 1016.4
21 15.06 н/о н/о +10.3 +7.6 83 1017.7 1016.8
22 15.06 н/о н/о +8.4 +6.2 86 1017.4 1016.5

 

Местоположение метеостанции Сетса (Норвегия): широта 67.17 долгота 15.49 высота над уровнем моря 7 м.

В архиве по умолчанию представлена погода в Сетсе за последнюю неделю. Архивные данные за месяц целиком и за предыдущие месяцы, начиная с января 2011 года, Вы можете получить, выбрав интересующий диапазон дат из раскрывающегося списка и нажав кнопку "Ввод!".


*Определитесь, кто Вы:
робот инопланетянин человек

Внимание! Время в таблицах - всемирное. Для получения местного времени необходимо прибавить поправку, которая равна 1 ч.

Смотрите также архив погоды в соседних городах и на ближайших метеорологических станциях:

Погода в Салтдале (Норвегия) (27 км)
Погода в Бодо (Норвегия) (50 км)
Погода в Миеркенисе (Швеция) (61 км)
Погода в Хеллигвере (Норвегия) (73 км)
Погода в Хяртасене (Норвегия) (78 км)
Погода в Рейпе (Норвегия) (85 км)
Погода в Ропаруддене (Швеция) (87 км)
Погода в Сторфоршее (Норвегия) (95 км)
Погода в Драге (Норвегия) (101 км)
Погода в Аэропорту Mo i Rana (Норвегия) (104 км)

Пояснения к столбцам:

Ветер - указаны скорость ветра в м/с - средняя за 10 мин, порывы в срок и между сроками (в фигурных скобках) и направление, откуда дует ветер: С - северный, СВ - северо-восточный, В - восточный, ЮВ - юго-восточный, Ю - южный, ЮЗ - юго-западный, З - западный, СЗ - северо-западный.
Видимость - горизонтальная дальность видимости в метрах или километрах. При видимости от 1 до 10 км при отсутствии осадков обычно наблюдается дымка, при ухудшении видимости до 1 км и менее - туман. В сухую погоду видимость может ухудшаться дымом, пылью или мглою.
Явления - указаны атмосферные явления, наблюдавшиеся в срок или в последний час перед сроком; фигурными скобками обозначены явления, наблюдавшиеся между сроками (за 1-3 часа до срока); квадратными скобками обозначены град или гололедные отложения с указанием их диаметра в мм.
Облачность - указаны через наклонную черту общая и нижняя облачность в баллах и высота нижней границы облаков в метрах; квадратными скобками обозначены формы облаков: Ci - перистые, Cs - перисто-слоистые, Cc - перисто-кучевые, Ac - высококучевые, As - высокослоистые, Sc - слоисто-кучевые, Ns - слоисто-дождевые, Cu - кучевые, Cb - кучево-дождевые. Подробнее классификацию облаков см. в Атласе облаков (PDF).
T - Температура воздуха - температура, измеренная на высоте 2 м над землей.
Td - Температура точки росы - температура, при понижении до которой содержащийся в воздухе водяной пар достигнет насыщения.
f - Относительная влажность воздуха - влажноcть воздуха, измеренная на высоте 2 м над землей.
Te - Эффективная температура - температура, которую ощущает одетый по сезону человек в тени. Характеристика душности погоды. При расчете учитывается влияние влажности воздуха и скорости ветра на теплоощущения человека.
Tes - Эффективная температура на солнце - температура, которую ощущает человек, с поправкой на солнечный нагрев. Характеристика знойности погоды. Зависит от высоты солнца над горизонтом, облачности и скорости ветра. Ночью, в пасмурную погоду, а также при ветре 12 м/с и более поправка равна нулю.
P - Атмосферное давление - приведенное к уровню моря атмосферное давление.
Po - Атмосферное давление - измеренное на уровне метеостанции атмосферное давление.
Tmin - Минимальная температура - минимум температуры воздуха на высоте 2 м над землей.
Tmax - Максимальная температура - максимум температуры воздуха на высоте 2 м над землей.
R - Количество осадков - Количество выпавших осадков за период времени, мм. При наведении курсора мыши на число - период времени, за который выпало указанное количество осадков.
R24 - Количество осадков - Количество выпавших осадков за 24 часа, мм.
S - Снежный покров - Высота снежного покрова, см. При наведении курсора мыши на число - состояние снежного покрова и степень покрытия местности в баллах.